Location: Demmingen
(48.6757°N, 10.4375°E)
Time: 19:27:35
(UTC+00:00)

USA 267 - Pass Details

Date: 23 May 2024
Orbit: 1100 x 1107 km, 123.0° (Epoch: 21 May)

Event Time Altitude Azimuth Distance (km) Brightness Sun altitude
Rises 00:15:03 0° 56° (ENE) 3,922 6.9 -19.4°
Reaches altitude 10° 00:17:32 10° 55° (NE) 2,963 6.2 -19.3°
Maximum altitude 00:24:02 72° 333° (NNW) 1,153 3.4 -19.0°
Enters shadow 00:30:21 11° 250° (WSW) 2,885 5.1 -18.7°
